Flag for Bangladesh Weather past 2 weeks in Jessore, Bangladesh

Now
61 °F

Passing clouds.


Feels Like: 61 °F
Forecast: 78 / 88 °F
Wind: 6 mph from Southeast

Location: Kunming Airport

Current Time: Sep 21, 2014 at 10:49:50 PM

Latest Report: Sep 21, 2014 at 10:00 PM


Visibility: N/A

Pressure: 30.21 "Hg

Humidity: 83%

Dew point: 55 °F

Location of JessoreLocation

Historic Weather in Jessore — Graph

°F

Jessore temperature yesterday

Maximum temperature yesterday: 70 °F (at 11:00 AM)
Minimum temperature yesterday: 59 °F (at 1:00 AM)
Average temperature yesterday: 62 °F

Past Weeks' High & Low Weather Summary

 TemperatureHumidityPressure
High79 °F (Sep 8, 1:00 PM)100% (Sep 6, 11:00 PM)30.30 "Hg (Sep 6, 11:00 PM)
Low55 °F (Sep 17, 9:00 PM)41% (Sep 21, 3:00 PM)29.92 "Hg (Sep 16, 3:00 PM)
Average66 °F84%30.11 "Hg
* Reported Sep 6 10:00 PM — Sep 21 10:00 PM, Jessore, Weather by CustomWeather, © 2014

Note: Actual official high and low records may vary slightly from our data, if they occured in-between our weather recording intervals... More about our weather records

Advertising

Jessore weather history for previous 24 hours

 ConditionsComfort  
Time TempWeatherWind HumidityBarometerVisibility
10:00 PM
Sep 21
61 °FPassing clouds.6 mph83%30.21 "HgN/A
9:00 PM63 °FPassing clouds.3 mph73%30.21 "HgN/A
8:00 PM63 °FPassing clouds.3 mph83%30.18 "HgN/A
7:00 PM64 °FPassing clouds.6 mph68%30.15 "HgN/A
6:00 PM63 °FClear.3 mph83%30.12 "Hg10 mi
5:00 PM66 °FSunny.1 mph68%30.09 "Hg10 mi
4:00 PM70 °FSunny.8 mph50%30.09 "Hg10 mi
3:00 PM73 °FSunny.8 mph41%30.09 "Hg10 mi
2:00 PM73 °FPassing clouds.8 mph47%30.09 "HgN/A
1:00 PM72 °FScattered clouds.8 mph57%30.09 "HgN/A
12:00 PM72 °FScattered clouds.3 mph65%30.12 "HgN/A
11:00 AM68 °FScattered clouds.10 mph78%30.15 "HgN/A
10:00 AM68 °FScattered clouds.8 mph73%30.18 "HgN/A
9:00 AM66 °FScattered clouds.1 mph83%30.21 "HgN/A
8:00 AM63 °FScattered clouds.6 mph94%30.21 "HgN/A
7:00 AM61 °FOvercast.3 mph100%30.18 "HgN/A
6:00 AM61 °FOvercast.3 mph100%30.15 "Hg6 mi
5:00 AM61 °FOvercast.3 mph100%30.15 "Hg5 mi
4:00 AM61 °FPartly cloudy.1 mph100%30.12 "Hg4 mi
3:00 AM61 °FPartly cloudy.1 mph100%30.09 "Hg4 mi
2:00 AM61 °FPartly cloudy.No wind100%30.09 "Hg4 mi
1:00 AM61 °FFog.3 mph100%30.12 "Hg2 mi
12:00 AM59 °FFog.6 mph100%30.12 "Hg2 mi
11:00 PM
Sep 20
59 °FFog.6 mph100%30.15 "Hg2 mi
Weather by CustomWeather, © 2014

See weather overviewHow to use our weather pages